Location: Mat�lon
(46.2791°N, 7.1028°E)
Time: 16:24:17
(UTC+00:00)

CSL-04 Debris - Pass Details

Date: 18 September 2020
Orbit: 827 x 847 km, 98.9° (Epoch: 30 October)

Event Time Altitude Azimuth Distance (km) Brightness Sun altitude
Rises 18:15:40 0° 161° (SSE) 3,359 7.0 -7.6°
Reaches altitude 10° 18:18:01 10° 161° (SSE) 2,428 6.3 -8.0°
Maximum altitude 18:23:24 84° 75° (ENE) 838 4.2 -8.9°
Drops below altitude 10° 18:28:49 10° 347° (NNW) 2,442 7.0 -9.8°
Sets 18:31:10 0° 347° (NNW) 3,381 7.7 -10.2°
